GW4477 Weather Reports


Display with metric or nautical units.
time (UTC)temp
F
wind
direction
speed
MPH
gust
MPH
rain 1hr
in
rain 24hr
in
rain mn
in
humidity
%
barometer
mb
20260902060015 71 186 0.0 3.0 0.00 0.00 0.00 68 1016.1
20260902054525 71 201 1.0 3.0 0.00 0.00 0.00 68 1016.2
20260902053027 71 216 0.0 2.0 0.00 0.00 0.00 68 1016.2
20260902051509 72 257 0.0 2.0 0.00 0.00 0.00 67 1016.2
20260902050046 73 261 0.0 3.0 0.00 0.00 0.00 66 1016.4
20260902044518 74 202 0.0 2.0 0.00 0.00 0.00 64 1016.3
20260902043032 74 211 1.0 4.0 0.00 0.00 0.00 63 1016.3
20260902041531 75 199 2.0 6.0 0.00 0.00 0.00 62 1016.1
20260902040010 76 206 1.0 4.0 0.00 0.00 0.00 60 1016.2
20260902034522 76 204 2.0 5.0 0.00 0.00 0.00 59 1016.3
20260902033021 76 191 2.0 5.0 0.00 0.00 0.00 59 1016.1
20260902031527 75 145 2.0 4.0 0.00 0.00 0.00 61 1016.0
20260902030031 76 199 2.0 4.0 0.00 0.00 0.00 59 1015.5
20260902024515 76 186 1.0 3.0 0.00 0.00 0.00 58 1015.4
20260902023019 77 202 0.0 2.0 0.00 0.00 0.00 55 1015.4
20260902021528 78 195 0.0 0.0 0.00 0.00 0.00 53 1015.3
20260902020033 79 340 0.0 0.0 0.00 0.00 0.00 51 1015.2
20260902014516 80 340 0.0 2.0 0.00 0.00 0.00 50 1015.2
20260902013017 81 325 0.0 6.0 0.00 0.00 0.00 50 1015.3
20260902011510 82 315 1.0 3.0 0.00 0.00 0.00 50 1015.4
20260902010011 84 336 1.0 6.0 0.00 0.00 0.00 47 1015.6
20260902004512 86 360 0.0 3.0 0.00 0.00 0.00 43 1015.5
20260902003022 88 215 1.0 4.0 0.00 0.00 0.00 40 1015.1
20260902001523 88 209 2.0 4.0 0.00 0.00 0.00 39 1015.2
20260902000006 89 170 1.0 3.0 0.00 0.00 0.00 38 1015.2
20260901234509 91 177 2.0 8.0 0.00 0.00 0.00 36 1015.1
20260901233014 92 180 3.0 7.0 0.00 0.00 0.00 34 1014.9
20260901231524 94 177 5.0 9.0 0.00 0.00 0.00 33 1015.0
20260901230027 95 230 5.0 13.0 0.00 0.00 0.00 31 1014.8
20260901224508 95 239 3.0 12.0 0.00 0.00 0.00 31 1014.7
20260901223012 95 250 5.0 14.0 0.00 0.00 0.00 31 1014.8
20260901221516 96 360 6.0 13.0 0.00 0.00 0.00 31 1015.0
20260901220038 96 260 5.0 13.0 0.00 0.00 0.00 32 1015.1
20260901214529 94 168 4.0 12.0 0.00 0.00 0.00 31 1015.3
20260901213013 96 199 3.0 8.0 0.00 0.00 0.00 30 1015.4
20260901211518 95 360 5.0 12.0 0.00 0.00 0.00 30 1015.5
20260901210026 96 360 3.0 13.0 0.00 0.00 0.00 30 1015.7
20260901204535 96 360 4.0 9.0 0.00 0.00 0.00 30 1016.0
20260901203037 96 360 5.0 11.0 0.00 0.00 0.00 31 1016.3
20260901201512 96 227 5.0 13.0 0.00 0.00 0.00 29 1016.4
20260901200024 95 360 7.0 14.0 0.00 0.00 0.00 31 1016.5
20260901194525 95 188 7.0 13.0 0.00 0.00 0.00 30 1016.7
20260901193034 95 360 7.0 14.0 0.00 0.00 0.00 30 1016.8
20260901191511 95 183 5.0 15.0 0.00 0.00 0.00 32 1017.2
20260901190020 94 190 6.0 14.0 0.00 0.00 0.00 33 1017.4
20260901184503 94 203 9.0 18.0 0.00 0.00 0.00 29 1017.6
20260901183007 93 172 7.0 14.0 0.00 0.00 0.00 32 1017.8
20260901181521 94 198 3.0 10.0 0.00 0.00 0.00 35 1018.0
20260901180019 93 182 6.0 12.0 0.00 0.00 0.00 36 1018.2
20260901174545 92 211 4.0 10.0 0.00 0.00 0.00 39 1018.4
20260901173004 91 200 3.0 10.0 0.00 0.00 0.00 41 1018.5
20260901171510 91 229 2.0 8.0 0.00 0.00 0.00 41 1018.7
20260901170012 90 233 4.0 10.0 0.00 0.00 0.00 43 1018.8
20260901164525 89 244 4.0 8.0 0.00 0.00 0.00 43 1018.9
20260901163027 88 262 3.0 10.0 0.00 0.00 0.00 43 1019.0
20260901161510 87 252 5.0 9.0 0.00 0.00 0.00 44 1018.9
20260901160021 86 286 3.0 11.0 0.00 0.00 0.00 46 1018.9
20260901154518 85 256 3.0 11.0 0.00 0.00 0.00 49 1018.7
20260901153026 83 173 5.0 10.0 0.00 0.00 0.00 50 1018.7
20260901151507 81 360 5.0 10.0 0.00 0.00 0.00 54 1018.7
20260901150015 79 173 3.0 8.0 0.00 0.00 0.00 60 1018.7
20260901144517 78 219 5.0 11.0 0.00 0.00 0.00 62 1018.5
20260901143027 76 225 5.0 10.0 0.00 0.00 0.00 65 1018.7
20260901141528 75 223 5.0 11.0 0.00 0.00 0.00 67 1018.8
20260901140027 73 220 4.0 9.0 0.00 0.00 0.00 71 1018.6
20260901134522 71 214 3.0 8.0 0.00 0.00 0.00 74 1018.7
20260901133024 70 218 1.0 7.0 0.00 0.00 0.00 79 1018.7
20260901131528 67 171 1.0 3.0 0.00 0.00 0.00 84 1018.5
20260901130031 66 207 2.0 3.0 0.00 0.00 0.00 85 1018.5
20260901124522 65 160 0.0 2.0 0.00 0.00 0.00 85 1018.5
20260901123036 65 139 1.0 3.0 0.00 0.00 0.00 85 1018.4
20260901121528 64 148 0.0 2.0 0.00 0.00 0.00 85 1018.1
20260901120042 65 176 1.0 2.0 0.00 0.00 0.00 86 1018.0
20260901114538 65 209 0.0 2.0 0.00 0.00 0.00 86 1018.1
20260901113018 65 205 0.0 2.0 0.00 0.00 0.00 85 1018.1
20260901111529 65 181 0.0 2.0 0.00 0.00 0.00 86 1018.1
20260901110030 65 163 0.0 0.0 0.00 0.00 0.00 85 1018.1
20260901104530 65 158 0.0 0.0 0.00 0.00 0.00 85 1018.1
20260901103032 65 342 0.0 0.0 0.00 0.00 0.00 85 1018.3
20260901101504 66 342 0.0 0.0 0.00 0.00 0.00 84 1018.4
20260901100003 66 342 0.0 2.0 0.00 0.00 0.00 84 1018.5
20260901094510 66 342 0.0 0.0 0.00 0.00 0.00 83 1018.5
20260901093003 67 342 0.0 2.0 0.00 0.00 0.00 81 1018.6
20260901091503 68 182 1.0 3.0 0.00 0.00 0.00 79 1018.4
20260901090008 70 321 0.0 2.0 0.00 0.00 0.00 75 1018.5
20260901084508 71 251 0.0 4.0 0.00 0.00 0.00 74 1018.5
20260901083003 70 214 0.0 1.0 0.00 0.00 0.00 78 1018.2
20260901081503 70 271 0.0 1.0 0.00 0.00 0.00 78 1018.2
20260901080005 69 214 1.0 4.0 0.00 0.00 0.00 81 1018.2
20260901074504 69 259 0.0 2.0 0.00 0.00 0.00 81 1018.2
20260901073024 69 250 0.0 2.0 0.00 0.00 0.00 82 1018.2
20260901071504 69 257 0.0 2.0 0.00 0.00 0.00 83 1018.1
20260901070006 69 246 0.0 2.0 0.00 0.00 0.00 82 1018.0
20260901064510 70 213 0.0 2.0 0.00 0.00 0.00 82 1017.8
20260901063007 70 195 0.0 2.0 0.00 0.00 0.00 80 1017.6
20260901061505 71 257 0.0 2.0 0.00 0.00 0.00 78 1017.5